CAPE
0 0 0 0 0 0 0 0 0 0 0 0 0 0 0 0 0 0 0 0 0 0 0 7 101 467 1065 1115 447 54 876 643 26 21 0 0 0 0 0 4 0 0 56 85 2
0 0 1 1 1 0 0 0 0 0 0 0 0 0 0 0 0 0 0 0 0 0 0 553 762 925 1015 690 95 0 237 234 12 18 7 16 8 2 0 140 84 0 100 65 11
0 0 1 1 0 0 0 0 0 0 0 0 0 0 0 0 0 0 0 0 0 0 263 579 538 894 790 384 1 2 149 31 59 9 3 8 20 68 104 96 248 0 35 9 16
0 0 0 0 0 0 0 0 0 0 0 0 0 0 0 0 0 0 0 0 0 0 551 487 688 780 132 273 83 189 382 166 174 55 108 57 25 25 11 4 172 21 35 12 6
0 0 0 0 0 0 0 0 0 0 0 0 0 0 0 0 0 0 0 0 0 169 266 294 512 460 436 424 376 274 296 91 64 321 274 25 52 79 60 112 148 44 7 5 1
0 0 0 0 0 0 0 0 0 0 0 0 0 0 0 0 0 0 0 0 33 613 379 277 466 584 619 419 99 675 439 266 121 264 200 149 339 189 264 316 182 37 0 0 0
0 0 0 0 0 0 0 0 0 0 0 0 0 0 0 0 0 0 0 0 346 615 598 644 394 529 964 621 630 290 508 39 262 294 309 293 271 356 444 474 301 137 0 0 0
0 0 0 0 0 0 0 0 0 0 0 0 0 0 0 0 0 0 1 312 489 540 579 409 431 547 677 579 258 398 177 0 151 96 6 16 41 20 155 557 398 259 0 0 0
1 0 0 0 0 0 0 0 0 0 0 0 0 0 0 0 0 0 11 352 499 748 719 570 409 884 991 701 424 174 394 196 172 294 365 162 66 81 328 527 450 361 36 0 0
1 0 0 0 0 0 0 0 0 0 0 0 0 0 0 0 0 0 0 75 124 346 386 599 472 143 340 229 196 16 70 364 316 184 53 423 607 642 483 472 515 532 299 0 0
1 0 0 0 0 0 0 0 0 0 0 0 0 0 0 0 0 0 0 50 118 303 501 237 27 139 173 348 57 134 108 20 18 0 67 25 278 504 416 351 483 638 591 359 41
1 0 0 0 0 0 0 0 0 0 0 0 0 0 0 0 0 0 0 31 125 236 54 220 40 144 131 77 28 20 22 23 4 5 201 9 24 293 199 218 283 405 594 679 608
1 0 0 0 0 0 0 0 0 0 0 0 0 0 0 0 0 11 2 27 127 294 69 34 145 208 181 4 45 0 0 15 8 0 0 0 0 0 2 79 194 275 532 548 681
1 0 0 0 0 0 0 0 0 0 0 0 0 0 0 0 0 7 0 22 187 168 1 1 149 324 67 20 16 0 0 3 19 0 23 32 0 0 0 0 0 13 189 325 499
1 0 0 0 0 0 0 0 0 0 0 0 0 0 0 0 0 9 37 72 152 229 470 177 142 297 85 78 0 25 0 5 33 4 4 0 3 0 0 0 1 1 12 36 80
1 0 0 0 0 0 0 0 0 0 0 5 0 0 0 0 6 49 55 59 157 285 260 179 279 276 34 0 0 0 0 31 50 5 1 6 4 8 4 1 14 0 4 3 5
0 0 0 0 0 0 0 0 0 0 12 5 0 0 5 7 13 94 23 63 91 109 25 20 117 267 6 0 13 7 3 48 25 68 19 8 38 46 23 11 4 48 18 22 33
0 0 0 0 0 0 0 0 0 0 3 4 4 0 6 58 50 135 126 90 119 21 29 14 89 124 0 0 0 1 1 9 28 1 11 0 92 37 20 0 107 50 35 41 125
0 0 0 0 0 0 0 0 8 60 0 27 20 62 21 42 143 196 67 134 44 47 80 68 15 0 0 0 0 0 17 0 0 14 62 1 7 36 57 81 0 0 0 0 34
0 0 0 0 0 0 0 0 0 3 0 0 32 46 42 68 167 198 126 0 5 41 165 43 20 0 0 0 0 0 0 0 0 7 35 14 26 0 1 0 0 0 0 0 0
0 0 0 0 0 0 0 0 10 0 0 0 15 124 51 31 85 52 88 134 73 29 46 0 33 51 0 0 0 0 0 0 2 0 2 26 1 2 6 1 0 0 0 0 35
0 0 0 0 0 0 0 0 0 8 0 0 0 0 41 111 100 57 174 21 142 46 0 35 59 15 15 0 0 0 0 0 0 0 0 0 5 47 0 0 0 0 0 98 135
0 0 0 0 0 0 0 0 0 0 0 0 0 31 43 1 25 235 21 4 58 2 24 45 11 6 15 0 0 0 0 0 0 0 0 9 44 3 7 3 14 22 131 134 205
0 0 0 0 0 2 38 7 0 0 0 0 0 0 17 158 179 230 168 0 0 0 0 0 0 0 0 0 0 0 0 0 0 0 0 3 9 8 187 173 220 223 234 198 238
0 0 0 0 0 0 0 46 30 30 0 0 0 0 0 43 107 3 60 0 0 0 0 0 0 0 0 0 0 0 0 0 16 5 0 0 7 300 301 362 369 316 126 179 467
0 8 0 0 0 0 0 0 37 57 37 0 0 0 0 0 144 40 0 0 1 0 0 0 0 0 0 0 0 0 0 0 0 0 9 26 265 173 148 62 58 62 112 534 447
0 0 2 0 0 0 0 0 17 45 6 9 2 0 27 3 1 18 0 0 2 1 0 1 0 0 0 0 0 1 6 0 0 0 0 0 161 76 13 0 0 39 401 407 310
CIN
0 0 0 0 0 0 0 0 0 0 0 0 0 0 0 0 0 0 0 0 0 0 0 -44 -109 -90 -45 -40 -26 -96 -52 -17 -10 -4 0 -2 0 0 0 -66 0 0 -112 -143 -28
0 0 0 0 0 0 0 0 0 0 0 0 0 0 0 0 0 0 0 0 0 0 0 -36 -3 -27 -14 -11 -147 0 -108 -35 -9 -5 -4 -12 -10 -4 -2 -11 -58 -4 -113 -177 -235
0 0 0 0 0 0 0 0 0 0 0 0 0 0 0 0 0 0 0 0 0 0 -142 -26 -44 -24 -19 -42 -20 -28 -55 -4 -11 -11 -19 -7 -7 -38 -21 -34 -8 0 -190 -235 -232
0 0 0 0 0 0 0 0 0 0 0 0 0 0 0 0 0 0 0 0 0 0 -92 -15 -6 -1 -644 -33 -100 -70 -24 -8 -11 -23 -27 -19 -2 -2 -22 -19 -24 -166 -201 -261 -256
0 0 0 0 0 0 0 0 0 0 0 0 0 0 0 0 0 0 0 0 0 -157 -64 -27 -3 -3 -22 -13 -11 -63 -6 -8 -10 -7 -9 -11 -9 -18 -9 -9 -31 -134 -224 -304 -171
0 0 0 0 0 0 0 0 0 0 0 0 0 0 0 0 0 0 0 0 -53 -19 -6 -44 -35 -35 -25 -9 -53 -17 -5 -3 -16 -9 -3 -10 -16 -9 -6 -5 -27 -149 0 -69 0
0 0 0 0 0 0 0 0 0 0 0 0 0 0 0 0 0 0 0 0 -62 -31 -2 -2 -19 -24 -5 -2 -2 -11 -21 -85 -11 -15 -20 -60 -39 -55 -12 -4 -13 -53 0 0 0
0 0 0 0 0 0 0 0 0 0 0 0 0 0 0 0 0 0 -24 -38 -41 -45 -23 -46 -50 -38 -35 -5 -24 -13 -93 0 -70 -21 -100 -108 -123 -110 -77 -2 -5 -30 0 0 0
0 0 0 0 0 0 0 0 0 0 0 0 0 0 0 0 0 0 -128 -24 -26 -35 -30 -31 -49 -8 -35 -11 -18 -73 -33 -66 -151 -7 -47 -64 -130 -195 -64 -2 -1 -37 -112 0 0
0 0 0 0 0 0 0 0 0 0 0 0 0 0 0 0 0 0 0 -85 -69 -30 -8 -5 -54 -203 -74 -46 -13 -28 -35 -17 -7 -1 -12 -7 -39 -36 -15 -3 -2 -6 -54 0 0
0 0 0 0 0 0 0 0 0 0 0 0 0 0 0 0 0 0 0 -97 -68 -53 -53 -96 -87 -42 -69 -42 -9 -3 -9 -2 -3 0 -20 -6 -7 -9 -26 -4 -2 -3 -18 -49 -123
0 0 0 0 0 0 0 0 0 0 0 0 0 0 0 0 0 0 0 -91 -36 -35 -163 -120 -133 -78 -108 -36 -26 -39 -75 -4 -9 -2 -6 -1 -1 -3 -3 -5 -1 -6 -6 -10 -33
0 0 0 0 0 0 0 0 0 0 0 0 0 0 0 0 0 -62 -48 -72 -13 -18 -90 -88 -88 -89 -19 -23 -32 0 0 -2 -2 0 0 0 0 0 -1 -16 -3 -11 -5 -7 -10
0 0 0 0 0 0 0 0 0 0 0 0 0 0 0 0 0 -114 0 -51 -5 -106 -21 -102 -151 -61 -3 -22 -38 0 0 -1 -4 0 -11 -3 0 0 0 0 0 -69 -33 -44 -31
0 0 0 0 0 0 0 0 0 0 0 0 0 0 0 0 -2 -71 -70 -40 -3 -34 -67 -48 -49 -3 -4 -20 0 -13 0 -4 -27 -28 -20 -12 -22 0 0 0 -1 -2 -126 -84 -111
0 0 0 0 0 0 0 0 0 0 0 -4 0 0 0 0 -13 -34 -59 -40 -7 -4 -7 -16 -20 -12 -7 0 0 0 -1 -14 -22 -75 -10 -82 -27 -123 -20 -19 -20 -1 -27 -4 -66
0 0 0 0 0 0 0 0 0 0 -38 -3 0 0 -72 -33 -35 -18 -60 -35 -16 -64 -29 -152 -34 -7 -13 0 -3 -2 -6 -2 -5 -27 -4 -42 -15 -46 -82 -110 -40 -49 -11 -17 -8
0 0 0 0 0 0 0 0 0 0 -24 -16 -21 0 -48 -10 -18 -27 -34 -21 -49 -204 -111 -188 -29 -4 0 0 0 -1 -5 -7 -28 -3 -11 -2 -3 -27 -112 -7 -43 -5 -10 -9 -8
0 0 0 0 0 0 0 0 -89 -19 -1 -5 -15 -5 -11 -39 -10 -11 -21 -26 -110 -90 -44 -129 -43 0 0 0 0 -1 -3 0 0 -9 -20 -87 -55 -41 -30 -17 0 0 0 0 -23
0 0 0 0 0 0 0 0 0 -4 0 0 -4 -9 -5 -12 -4 -4 -2 0 -30 -65 -13 -36 -11 0 0 0 0 0 0 0 0 -10 -16 -62 -23 0 -16 -17 0 0 0 0 0
0 0 0 0 0 0 0 0 -15 0 0 0 -2 -24 -15 -5 -4 -7 -51 -9 -19 -26 -32 0 -94 -11 0 0 0 0 0 0 -2 0 -1 -15 -22 -92 -29 -25 0 0 0 0 -73
0 0 0 0 0 0 0 0 0 -83 0 0 0 0 -27 -34 -6 -20 -7 -76 -14 -5 0 -12 -15 -21 -25 0 0 0 0 0 0 0 0 0 -18 -17 0 0 0 0 0 -104 -105
0 0 0 0 0 0 0 0 -2 0 0 0 0 -35 -32 -3 -131 -5 -42 -14 -19 -5 -80 -52 -8 -5 -8 0 -1 -1 0 0 0 0 -1 -5 -6 -19 -74 -25 -65 -107 -94 -122 -115
0 0 0 0 0 -6 -14 -6 0 0 0 0 0 0 -4 -103 -51 -10 -10 0 0 0 0 0 0 0 0 0 0 0 0 0 0 0 0 -4 -8 -19 -37 -31 -68 -98 -89 -88 -90
0 0 0 0 0 0 0 -13 -8 -4 0 0 0 0 0 -8 -3 -3 -2 0 0 0 0 0 0 0 0 0 0 0 0 0 -3 -2 0 0 -4 -34 -61 -99 -100 -96 -100 -105 -91
0 -22 0 0 0 0 0 0 -5 -4 -7 0 0 0 0 -3 -14 -3 0 0 -4 0 0 0 0 0 0 0 0 0 0 0 0 0 -2 -3 -62 -65 -161 -174 -202 -141 -126 -90 -113
0 0 -75 0 0 0 0 0 -17 -17 -9 -9 -7 -3 -6 -25 -29 -31 -2 -2 -10 -2 0 -2 0 0 0 0 0 -13 -2 0 0 0 0 0 -56 -169 -213 0 0 -198 -116 -158 -175
Wind_Speed
18 19 18 18 18 18 18 18 18 18 18 18 18 18 19 19 20 16 16 13 15 14 15 16 16 16 17 15 16 11 16 16 24 24 24 23 24 7 22 22 16 9 12 24 24
19 19 19 19 19 18 19 19 19 19 18 18 18 19 19 19 18 18 18 16 15 16 17 15 15 16 17 20 19 11 15 16 16 21 23 20 21 22 19 20 20 22 21 21 24
19 19 19 19 19 19 19 19 19 19 19 19 19 19 18 18 16 10 17 17 17 17 17 16 16 18 18 7 15 17 15 21 10 12 18 20 16 18 17 22 19 18 18 19 21
20 20 20 20 20 20 20 20 20 20 19 19 19 19 19 16 13 14 17 18 17 17 18 18 19 17 20 16 20 17 17 12 14 12 11 17 18 18 21 17 18 18 18 20 20
20 20 20 20 20 20 20 20 21 20 20 19 19 19 17 19 18 14 15 16 19 18 16 17 19 16 15 16 17 17 18 14 16 16 17 16 10 16 17 17 18 17 18 18 19
21 21 21 21 20 20 21 21 21 21 20 20 19 19 19 19 15 13 16 17 20 19 17 17 16 16 16 15 12 14 12 13 17 16 16 14 13 12 6 17 18 18 17 18 17
21 21 21 21 21 21 21 22 22 21 21 21 19 18 21 20 16 19 20 19 19 20 18 17 17 18 16 16 15 15 16 17 15 15 17 18 16 14 12 17 19 18 18 18 17
22 22 22 21 21 21 22 22 22 22 22 21 20 19 20 17 18 21 22 21 21 21 20 17 17 20 21 19 15 16 12 17 18 16 16 17 13 20 18 19 19 18 18 18 18
23 22 22 22 21 22 22 23 23 23 22 21 20 20 21 18 22 22 23 21 19 19 19 16 17 14 18 17 14 12 14 18 13 16 14 14 17 20 20 19 18 17 17 17 18
23 23 22 22 21 22 22 23 21 21 22 23 24 21 24 20 23 23 23 21 19 18 18 18 17 12 20 22 21 19 19 17 19 16 14 14 16 20 21 19 17 17 18 19 18
24 23 23 22 22 21 19 18 18 20 26 27 20 22 14 16 20 24 23 20 18 18 19 17 17 24 21 18 15 12 11 21 21 18 14 20 19 19 20 19 18 18 17 18 19
24 24 23 22 22 22 22 21 16 17 22 31 28 25 17 22 20 25 23 21 19 15 19 19 18 17 18 18 14 14 13 3 17 18 14 22 22 21 18 17 16 16 16 17 18
24 24 23 22 22 24 29 29 18 19 22 26 31 28 25 25 24 26 23 22 20 16 16 23 19 16 17 12 16 16 11 12 18 19 18 20 20 20 18 17 15 14 15 15 16
24 24 22 21 21 26 29 27 24 20 20 22 29 26 27 25 25 24 24 23 20 13 16 14 15 16 15 16 17 21 14 12 12 12 15 14 16 21 16 15 14 14 13 14 13
24 24 23 23 21 23 18 22 19 19 17 5 21 12 2 27 8 23 22 23 21 8 17 16 16 17 16 13 14 13 12 13 21 17 19 19 15 11 12 10 13 14 14 14 12
24 24 23 24 25 26 20 20 20 20 20 16 12 22 28 28 25 13 22 22 22 22 22 21 17 18 17 17 16 14 12 10 11 16 13 10 10 11 10 11 12 14 13 12 10
25 25 25 24 21 20 22 22 22 24 21 16 17 25 29 26 27 20 24 22 11 15 23 25 23 21 8 19 14 14 20 14 20 15 11 11 9 13 13 13 12 9 9 11 9
25 25 27 32 22 21 23 24 25 27 23 14 11 29 30 29 27 25 21 23 7 10 11 18 16 21 13 18 18 20 17 16 14 16 21 12 15 12 15 16 13 11 13 15 8
22 22 24 27 30 25 27 29 23 20 19 15 19 30 28 20 21 24 26 16 10 26 14 14 18 14 14 17 19 18 23 22 21 24 17 18 19 19 13 11 17 18 12 7 6
20 22 26 28 20 25 30 34 27 21 18 17 23 26 28 11 22 25 21 11 11 27 8 5 15 10 16 13 12 18 21 23 22 20 18 18 17 11 11 14 20 21 22 23 23
20 20 11 14 18 27 34 31 24 17 20 21 21 24 25 30 25 22 20 18 18 12 8 11 23 15 11 14 17 24 24 24 23 23 24 23 19 17 12 17 21 19 24 26 27
21 20 12 15 25 29 34 30 23 20 17 24 24 12 28 26 31 17 17 13 18 16 12 9 9 13 13 11 19 20 19 21 23 24 26 25 24 17 18 19 19 25 25 21 24
21 11 14 21 28 27 34 32 22 25 23 22 24 27 14 25 18 15 9 24 17 16 16 21 14 20 18 16 17 16 19 24 21 21 25 22 13 20 22 22 23 22 24 28 30
20 16 17 28 34 30 31 31 26 23 26 24 25 26 20 5 9 19 10 10 14 15 18 19 22 23 25 12 17 21 25 25 25 26 28 28 33 35 26 25 25 27 30 33 35
20 21 17 25 33 30 30 25 28 25 18 20 24 25 22 21 17 16 15 14 14 13 17 17 23 27 29 29 29 29 29 29 25 22 26 32 31 24 25 26 27 30 33 33 32
18 15 17 22 31 30 30 26 23 26 20 20 25 25 25 25 20 21 14 17 10 13 17 20 24 21 24 24 27 31 34 33 31 22 25 22 17 21 24 27 30 33 34 32 32
21 21 23 24 24 25 31 24 22 21 20 23 21 25 18 17 11 25 18 19 16 14 18 18 20 24 26 28 29 29 23 28 25 24 27 25 20 23 27 31 34 37 29 31 33
Wind_Direction
282 282 278 276 270 266 257 255 249 247 247 248 251 260 264 269 265 219 210 237 184 147 184 200 187 193 192 183 168 204 159 155 106 115 111 128 113 177 71 90 7 249 113 104 108
280 279 275 274 268 263 256 253 247 246 245 249 254 262 267 274 253 221 196 203 146 156 178 208 193 195 169 167 147 183 152 148 161 71 105 136 97 98 118 91 68 54 64 89 112
276 276 273 271 266 261 255 249 245 244 245 251 257 260 265 271 241 260 210 170 151 158 192 213 198 180 158 159 204 139 148 127 187 190 71 120 29 59 16 93 69 65 83 97 108
273 273 271 270 264 258 251 246 243 242 246 252 257 260 260 246 251 278 114 141 162 176 207 204 189 188 20 149 118 147 170 176 177 183 218 53 102 47 41 10 33 62 89 105 110
271 270 269 267 259 254 248 243 241 241 247 251 256 264 260 234 244 256 81 109 178 185 206 218 193 215 181 174 167 129 148 168 163 128 128 121 7 116 18 42 39 62 86 102 109
268 267 266 264 257 251 245 241 240 242 247 249 255 262 242 238 280 140 102 116 190 207 201 198 214 227 211 211 33 187 233 208 102 147 134 77 250 113 204 58 60 72 85 101 103
265 263 263 261 255 248 243 240 240 242 243 245 254 255 238 227 240 149 155 154 210 225 230 229 236 208 225 214 200 193 291 286 215 78 127 33 255 235 199 77 84 89 93 103 105
264 260 260 258 253 246 244 240 240 239 241 242 245 243 233 237 222 184 182 188 193 212 215 228 229 224 220 200 169 98 173 75 165 114 89 69 297 213 216 106 103 90 92 104 113
262 257 258 255 252 245 243 239 239 236 236 238 243 229 231 233 195 189 186 193 198 208 209 212 214 234 233 193 249 163 124 115 121 139 92 83 88 161 178 125 102 91 86 102 110
260 256 256 254 250 247 243 235 235 245 238 232 232 240 220 221 191 190 188 203 210 233 235 223 218 177 182 162 120 122 109 117 83 88 100 105 91 120 129 123 100 104 105 118 118
258 255 254 252 248 246 243 235 239 243 226 215 235 217 261 241 221 206 198 202 204 219 277 255 210 160 164 181 194 174 166 46 31 62 129 52 97 84 101 129 103 111 105 125 131
255 252 251 250 246 240 233 224 262 262 248 206 223 228 252 214 227 204 182 206 191 29 61 191 207 198 200 187 220 304 282 329 75 67 94 56 56 82 81 112 105 120 111 126 133
252 249 250 248 244 230 216 214 265 263 247 228 205 218 215 204 211 189 173 201 223 80 30 171 196 236 194 301 291 243 212 154 95 59 63 71 62 49 44 83 74 125 119 115 129
249 247 247 245 233 219 217 220 226 248 252 231 214 224 186 197 207 212 177 205 239 352 6 237 213 217 198 64 36 69 189 170 131 50 35 109 49 33 55 62 67 123 92 113 121
246 244 242 230 236 220 237 225 240 237 239 246 231 256 288 182 265 190 178 207 231 48 125 192 209 206 212 45 131 108 136 125 29 40 269 339 344 69 51 55 85 95 94 119 90
242 239 236 227 225 220 238 233 230 233 244 241 251 223 209 204 208 260 186 194 228 240 200 212 206 208 234 287 147 202 184 247 89 48 64 77 54 79 58 59 44 104 87 100 88
238 233 227 230 222 238 232 224 225 224 174 249 240 223 197 214 203 234 199 176 218 290 262 267 234 199 174 223 251 201 292 47 32 31 62 57 48 48 76 86 77 84 109 99 78
235 232 226 219 239 238 226 220 221 213 242 131 239 187 194 183 202 170 177 191 108 69 313 254 236 179 360 262 285 249 250 15 31 33 358 51 31 55 80 111 112 107 15 357 20
234 234 233 228 221 227 215 218 222 251 138 252 238 201 210 239 239 220 213 270 10 215 7 90 178 20 350 302 293 334 318 295 288 323 11 3 27 61 80 84 41 44 44 51 47
232 231 231 222 231 225 215 220 252 266 264 252 227 229 221 130 214 231 252 309 71 206 2 53 238 35 5 20 23 331 300 328 322 4 356 15 358 30 15 16 9 3 350 343 342
231 231 232 232 228 226 217 218 247 284 259 249 251 242 237 208 239 241 263 275 223 14 7 18 261 309 30 15 341 320 312 320 320 305 322 340 354 356 17 355 351 359 349 338 336
231 236 238 228 226 229 221 232 264 257 270 250 258 232 236 249 220 274 292 293 270 307 320 16 46 47 18 38 353 333 339 324 322 318 311 331 328 40 13 5 4 352 349 359 352
234 255 245 229 226 233 228 242 263 246 254 262 254 243 309 279 264 259 323 213 269 291 321 308 316 324 336 342 13 353 343 324 333 332 320 331 354 19 325 346 358 2 354 347 345
239 246 244 232 228 241 241 245 255 260 257 263 257 260 278 99 216 274 323 358 333 327 316 299 293 296 313 9 330 331 324 330 322 317 316 315 311 313 335 338 343 343 341 337 335
237 248 246 235 231 239 246 254 251 255 279 270 257 257 266 279 294 297 305 330 330 339 319 312 301 298 302 304 310 314 313 316 326 329 320 313 316 340 342 344 340 339 336 337 341
249 270 250 242 232 243 249 257 262 251 273 268 257 259 266 268 280 290 311 318 342 335 325 306 305 321 320 318 315 310 305 303 309 329 326 334 359 352 353 345 340 338 338 342 344
273 262 246 240 240 244 242 259 261 266 281 263 276 262 269 286 286 236 272 270 332 334 313 328 327 323 318 318 316 316 338 320 320 329 327 328 344 348 341 339 338 336 345 341 337